Time,TemperatureF,DewpointF,PressureIn,WindDirection,WindDirectionDegrees,WindSpeedMPH,WindSpeedGustMPH,Humidity,HourlyPrecipIn,Conditions,Clouds,dailyrainin,SolarRadiationWatts/m^2,SoftwareType,DateUTC
2017-09-20 00:02:00,71.0,68.6,29.97,North,360,0.0,0.0,92,0.00,FEW,,0.00,118.0,WeatherDisplay:10.37,2017-09-20 04:02:00,
2017-09-20 00:07:00,70.8,68.4,29.96,North,360,0.0,0.0,92,0.00,FEW,,0.00,121.0,WeatherDisplay:10.37,2017-09-20 04:07:00,
2017-09-20 00:12:00,70.8,68.4,29.96,North,360,0.0,0.0,92,0.00,FEW,,0.00,121.0,WeatherDisplay:10.37,2017-09-20 04:12:00,
2017-09-20 00:17:00,70.8,68.4,29.96,North,360,0.0,0.0,92,0.00,FEW,,0.00,121.0,WeatherDisplay:10.37,2017-09-20 04:17:00,
2017-09-20 00:22:00,70.8,68.4,29.96,North,360,0.0,0.0,92,0.00,FEW,,0.00,123.0,WeatherDisplay:10.37,2017-09-20 04:22:00,
2017-09-20 00:27:00,70.7,68.3,29.96,North,360,0.0,0.0,92,0.00,FEW,,0.00,123.0,WeatherDisplay:10.37,2017-09-20 04:27:00,
2017-09-20 00:32:00,70.7,68.3,29.96,North,360,0.0,0.0,92,0.00,FEW,,0.00,123.0,WeatherDisplay:10.37,2017-09-20 04:32:00,
2017-09-20 00:37:00,70.6,68.2,29.96,North,360,0.0,0.0,92,0.00,FEW,,0.00,123.0,WeatherDisplay:10.37,2017-09-20 04:37:00,
2017-09-20 00:42:00,70.6,68.2,29.96,North,360,0.0,0.0,92,0.00,FEW,,0.00,121.0,WeatherDisplay:10.37,2017-09-20 04:42:00,
2017-09-20 00:47:00,70.6,68.5,29.96,North,360,0.0,0.0,93,0.00,FEW,,0.00,120.0,WeatherDisplay:10.37,2017-09-20 04:47:00,
2017-09-20 00:52:00,70.6,68.5,29.97,North,360,0.0,0.0,93,0.00,FEW,,0.00,120.0,WeatherDisplay:10.37,2017-09-20 04:52:00,
2017-09-20 00:57:00,70.6,68.5,29.97,North,360,0.0,0.0,93,0.00,FEW,,0.00,118.0,WeatherDisplay:10.37,2017-09-20 04:57:00,
2017-09-20 01:02:00,70.7,68.6,29.97,North,360,0.0,0.0,93,0.00,CLR,,0.00,113.0,WeatherDisplay:10.37,2017-09-20 05:02:00,
2017-09-20 01:07:00,70.6,68.5,29.97,North,360,0.0,0.0,93,0.00,CLR,,0.00,113.0,WeatherDisplay:10.37,2017-09-20 05:07:00,
2017-09-20 01:12:00,70.6,68.5,29.96,North,360,0.0,0.0,93,0.00,CLR,,0.00,109.0,WeatherDisplay:10.37,2017-09-20 05:12:00,
2017-09-20 01:17:00,70.6,68.5,29.96,North,360,0.0,0.0,93,0.00,CLR,,0.00,109.0,WeatherDisplay:10.37,2017-09-20 05:17:00,
2017-09-20 01:22:00,70.6,68.5,29.96,North,360,0.0,0.0,93,0.00,CLR,,0.00,109.0,WeatherDisplay:10.37,2017-09-20 05:22:00,
2017-09-20 01:27:00,70.6,68.5,29.96,North,360,0.0,0.0,93,0.00,CLR,,0.00,107.0,WeatherDisplay:10.37,2017-09-20 05:27:00,
2017-09-20 01:32:00,70.6,68.5,29.96,North,360,0.0,0.0,93,0.00,CLR,,0.00,107.0,WeatherDisplay:10.37,2017-09-20 05:32:00,
2017-09-20 01:37:00,70.6,68.5,29.96,North,360,0.0,0.0,93,0.00,CLR,,0.00,104.0,WeatherDisplay:10.37,2017-09-20 05:37:00,
2017-09-20 01:42:00,70.6,68.5,29.96,North,360,0.0,0.0,93,0.00,CLR,,0.00,104.0,WeatherDisplay:10.37,2017-09-20 05:42:00,
2017-09-20 01:47:00,70.6,68.5,29.96,North,360,0.0,0.0,93,0.00,CLR,,0.00,102.0,WeatherDisplay:10.37,2017-09-20 05:47:00,
2017-09-20 01:52:00,70.6,68.5,29.96,North,360,0.0,0.0,93,0.00,CLR,,0.00,100.0,WeatherDisplay:10.37,2017-09-20 05:52:00,
2017-09-20 01:57:00,70.6,68.8,29.96,North,360,0.0,0.0,94,0.00,CLR,,0.00,98.0,WeatherDisplay:10.37,2017-09-20 05:57:00,
2017-09-20 02:02:00,70.5,68.7,29.97,North,360,0.0,0.0,94,0.00,CLR,,0.00,97.0,WeatherDisplay:10.37,2017-09-20 06:02:00,
2017-09-20 02:07:00,70.5,68.7,29.96,North,360,0.0,0.0,94,0.00,CLR,,0.00,95.0,WeatherDisplay:10.37,2017-09-20 06:07:00,
2017-09-20 02:12:00,70.5,68.7,29.97,North,360,0.0,0.0,94,0.00,CLR,,0.00,93.0,WeatherDisplay:10.37,2017-09-20 06:12:00,
2017-09-20 02:17:00,70.4,68.6,29.97,North,360,0.0,0.0,94,0.00,CLR,,0.00,90.0,WeatherDisplay:10.37,2017-09-20 06:17:00,
2017-09-20 02:22:00,70.4,68.6,29.97,North,360,0.0,0.0,94,0.00,CLR,,0.00,90.0,WeatherDisplay:10.37,2017-09-20 06:22:00,
2017-09-20 02:27:00,70.3,68.5,29.97,North,360,0.0,0.0,94,0.00,CLR,,0.00,90.0,WeatherDisplay:10.37,2017-09-20 06:27:00,
2017-09-20 02:32:00,70.3,68.5,29.97,North,360,0.0,0.0,94,0.00,CLR,,0.00,86.0,WeatherDisplay:10.37,2017-09-20 06:32:00,
2017-09-20 02:37:00,70.2,68.4,29.97,North,360,0.0,0.0,94,0.00,CLR,,0.00,86.0,WeatherDisplay:10.37,2017-09-20 06:37:00,